Regional Weather Roundup
Issued by NWS

Home | Current Version | Previous Version | Graphics & Text | Print | Product List | Glossary On
Versions: 1 2 3 4 5 6 7 8 9 10 11 12 13 14 15 16 17 18 19 20 21 22 23 24 25 26 27 28 29 30 31 32 33 34 35 36 37 38 39 40 41 42 43 44 45 46 47 48 49 50
000
ASUS43 KMPX 100010
RWRMN
WEATHER ROUNDUP FOR MINNESOTA
NATIONAL WEATHER SERVICE TWIN CITIES/CHANHASSEN MN
600 PM CST TUE FEB 09 2016


NOTE: "FAIR" INDICATES FEW OR NO CLOUDS BELOW 12,000 FEET WITH NO
SIGNIFICANT WEATHER AND/OR OBSTRUCTIONS TO VISIBILITY. N/A MEANS
CURRENT SKY AND/OR WEATHER CONDITIONS ARE NOT AVAILABLE.

MNZ060>063-068>070-100100-
   Twin Cities Metro

CITY           SKY/WX    TMP DP  RH WIND       PRES   REMARKS
TWIN CITIES    PTCLDY    13  -2  51 NW13      30.14R WCI  -2
6HR MIN TEMP:  13; 6HR MAX TEMP:  17;

ST PAUL        CLEAR     13  -1  54 NW17      30.15R WCI  -4
CRYSTAL        CLEAR     14  -2  49 NW15      30.13R WCI  -1
BLAINE         PTCLDY    14   0  52 N12G18    30.13R WCI   0
LAKEVILLE      CLEAR     10   0  61 NW15G21   30.12R WCI  -6
EDEN PRAIRIE   CLEAR     14  -1  51 NW8       30.13R WCI   3
6HR MIN TEMP:  13; 6HR MAX TEMP:  17;

SOUTH ST PAUL  CLEAR     15  -1  49 NW13      30.13R WCI   0
LAKE ELMO      FAIR      14   0  52 NW8       30.12R WCI   3
$$
MNZ001>005-007-008-013>017-022>024-027-028-100100-
   Northwest Minnesota

CITY           SKY/WX    TMP DP  RH WIND       PRES   REMARKS
BEMIDJI        CLEAR      3  -4  73 W7        30.17S WCI -10
HALLOCK        CLOUDY     1  -2  85 NW6       30.29S WCI -10
ROSEAU         CLEAR      1  -6  71 W9        30.24R WCI -14
WARROAD        CLEAR      3  -6  66 NW5       30.22S WCI  -6
THIEF RVR FALL CLEAR      3  -2  78 NW8       30.24S WCI -10
CROOKSTON      CLEAR      3   0  85 N12       30.28S WCI -13
FOSSTON        CLEAR     -2  -8  78 N7        30.22S WCI -16
DETROIT LAKES  CLEAR      7   3  85 NW7       30.21S WCI  -5
MOORHEAD       CLOUDY    10   5  79 N12       30.27R WCI  -4
PARK RAPIDS    CLEAR      6  -5  60 NW9       30.15R WCI  -8
MAHNOMEN       FAIR       0  -4  83 NW8       30.22R WCI -14
$$
MNZ006-009>011-018-025>026-100100-
   North Central Minnesota

CITY           SKY/WX    TMP DP  RH WIND       PRES   REMARKS
BAUDETTE       CLEAR      0  -9  65 NW8       30.19R WCI -14
FLAG ISLAND    CLEAR      3  -6  66 NW9       30.21S WCI -11
INTL FALLS     CLEAR      2  -7  66 NW10      30.15S WCI -14
6HR MIN TEMP:   2; 6HR MAX TEMP:   7;

WASKISH        CLEAR      3  -6  66 NW3       30.19S
LONGVILLE      CLEAR      5  -6  61 NW8       30.15S WCI  -8
GRAND RAPIDS   CLEAR      7  -6  56 NW13      30.11S WCI  -9
CRANE LAKE     PTCLDY     1  -4  78 N5        30.15S WCI  -8
ORR            CLEAR      1  -8  66 CALM      30.09F
COOK           CLEAR      3  -6  66 N3        30.11S
WALKER         FAIR       5  -4  67 NW7       30.16S WCI  -7
$$
MNZ012-019>021-037-100100-
   Northeast Minnesota

CITY           SKY/WX    TMP DP  RH WIND       PRES   REMARKS
DULUTH         PTCLDY     5  -5  63 NW10      30.05R WCI -10
6HR MIN TEMP:   5; 6HR MAX TEMP:  10;

ELY            CLOUDY     1  -2  85 NW6       30.08S WCI -10
HIBBING        CLEAR      2  -7  66 NW12      30.09S WCI -15
EVELETH        CLEAR      5  -6  61 NW8       30.09F WCI  -8
DULUTH HARBOR  CLEAR     12  -2  52 NW14G23   30.14R WCI  -3
TWO HARBORS    CLEAR      9  -2  61 NW5       30.05R WCI   0
SILVER BAY     CLEAR      5  -4  66 NW9       30.05R WCI  -9
GRAND MARAIS     N/A      6  -5  60 VRB3      30.10R
G MARAIS ARPRT CLOUDY     0  -9  65 NW16G25   29.96R HAZE    WCI -21
$$
MNZ029>031-032-039>041-046>048-054>057-064-100100-
   West Central Minnesota

CITY           SKY/WX    TMP DP  RH WIND       PRES   REMARKS
FERGUS FALLS   CLOUDY    10   5  79 N7        30.25F WCI   0
WHEATON        PTCLDY    16   9  73 NW9       30.26S WCI   4
MORRIS         CLOUDY    14   7  73 NW16      30.19F WCI  -2
ALEXANDRIA     CLEAR      9  -2  61 NW10      30.17S WCI  -5
ELBOW LAKE     CLOUDY    12   4  71 N14       30.21S HAZE    WCI  -4
WADENA         CLEAR      7   0  72 NW6       30.17S WCI  -3
GLENWOOD       CLOUDY    10   1  67 NW9       30.17S WCI  -2
APPLETON       CLOUDY    18  10  73 NW16      30.22S WCI   3
BENSON         CLOUDY    16   7  67 N15       30.20S WCI   1
ORTONVILLE     CLOUDY    16   9  73 N9        30.22S WCI   4
MADISON        CLOUDY    19  10  68 N12       30.22F WCI   7
WILLMAR        FAIR      16   7  67 NW10      30.19S WCI   3
$$
MNZ033>034-036-042>043-049>051-058-059-100100-
   Central Minnesota

CITY           SKY/WX    TMP DP  RH WIND       PRES   REMARKS
ST CLOUD       CLEAR     12  -2  53 NW8       30.15R WCI   0
6HR MIN TEMP:  11; 6HR MAX TEMP:  16;

SAUK CENTRE    FAIR      10   1  65 NW14      30.17R WCI  -5
PAYNESVILLE    CLEAR     12   2  63 NW9G16    30.17S WCI   0
AITKIN         CLEAR      9  -6  52 NW6       30.12S WCI  -1
PINE RIVER     CLEAR      9  -2  61 NW5       30.18R WCI   0
BRAINERD       CLEAR      8  -5  55 N8        30.15R WCI  -4
STAPLES        CLEAR      7  -2  66 NW8       30.16R WCI  -6
LONG PRAIRIE   FAIR      10   1  67 W10G16    30.16R WCI  -3
LITTLE FALLS   CLEAR     14  -4  44 NW5       30.16R WCI   6
LITCHFIELD     CLEAR     14   3  62 NW7       30.17R WCI   4
BUFFALO        CLEAR     13  -1  53 NW9       30.15S WCI   1
MAPLE LAKE     CLEAR     14   1  56 NW10      30.15S WCI   2
$$
MNZ037-044-045-052-053-100100-
   East Central Minnesota

CITY           SKY/WX    TMP DP  RH WIND       PRES   REMARKS
PRINCETON      CLEAR     12  -2  52 NW13      30.13S WCI  -3
MORA           CLEAR     12   0  57 NW10      30.14S WCI  -1
CAMBRIDGE      CLEAR     12   0  57 CALM      30.11S
RUSH CITY      PTCLDY    10  -2  58 NW7       30.13R WCI  -1
MOOSE LAKE     CLEAR     10  -6  48 N12G17    30.09S WCI  -4
HINCKLEY       FAIR      12  -4  48 NW12G18   30.11R WCI  -2
CLOQUET        CLEAR      7  -8  51 NW12      30.08R WCI  -9
MCGREGOR       CLEAR      9  -2  61 NW7       30.12S WCI  -3
$$
MNZ071>073-080-081-089-090-097-098-100100-
   Southwest Minnesota

CITY           SKY/WX    TMP DP  RH WIND       PRES   REMARKS
MONTEVIDEO     CLOUDY    16  10  79 N12G17    30.23S WCI   3
GRANITE FALLS  CLOUDY    18  11  74 NW15      30.22S WCI   4
CANBY          CLOUDY    22  15  72 NW7       30.22S WCI  14
MARSHALL       CLOUDY    18  11  74 NW13      30.20S WCI   5
REDWOOD FALLS  CLOUDY    16   7  67 NW8G20    30.19S WCI   5
OLIVIA         PTCLDY    18   9  68 NW15      30.18S WCI   3
PIPESTONE      CLOUDY    21   7  53 N8G18     30.18S WCI  12
WINDOM         CLEAR     16   9  73 NW18G24   30.16R WCI  -1
WORTHINGTON    CLOUDY    18   7  62 NW18      30.17S WCI   2
JACKSON        MOCLDY    18   9  68 NW16      30.15R WCI   3
TRACY          CLOUDY    18  12  76 NW15G21   30.19S WCI   4
SLAYTON        CLOUDY    17  13  84 NW14      30.17S WCI   3
$$
MNZ065>067-074>077-082>085-091>093-100100-
   South Central Minnesota

CITY           SKY/WX    TMP DP  RH WIND       PRES   REMARKS
MANKATO        CLEAR     14   1  57 NW13      30.14R WCI   0
NEW ULM        CLEAR     14   7  73 NW16      30.16R WCI  -2
ST JAMES       CLEAR     16   9  73 NW17      30.17S WCI   0
FAIRMONT       CLEAR     14   3  62 NW16G22   30.14R WCI  -2
GLENCOE        CLEAR     15   4  62 NW12G18   30.15R WCI   1
FARIBAULT        N/A     10   0  61 NW9       30.12R WCI  -2
OWATONNA       CLEAR     10   0  61 NW10      30.11R WCI  -3
WASECA         CLEAR     12   3  67 NW16      30.14R WCI  -4
ALBERT LEA     CLEAR     12   1  62 NW12G21   30.09R WCI  -2
$$
MNZ078>079-086>088-094>096-100100-
   Southeast Minnesota

CITY           SKY/WX    TMP DP  RH WIND       PRES   REMARKS
ROCHESTER      CLEAR     10  -1  61 NW17      30.05R WCI  -8
6HR MIN TEMP:   8; 6HR MAX TEMP:  13;

RED WING       CLEAR     12  -4  48 N8        30.10R WCI   1
STANTON        CLEAR     12   0  58 NW14      30.10R WCI  -3
DODGE CENTER   PTCLDY     9   0  66 NW15      30.06R WCI  -8
WINONA         CLEAR     14   1  57 NW14      30.08R WCI  -1
AUSTIN         CLEAR     10   1  67 NW13G20   30.07R WCI  -5
PRESTON        CLEAR     10  -3  55 N16G22    30.03R WCI  -7
$$
ABBREVIATIONS USED IN REMARKS
   TC - TEMPERATURES IN CELSIUS
  WCI - WIND CHILL INDEX
   HX - HEAT INDEX
  VSB - VISIBILITY
$$



USA.gov is the U.S. government's official web portal to all federal, state and local government web resources and services.